Preview of NWS' New Version of Forecast
This preview is not operational and should not be used for support decisions.
Latest weather observations around

WX6HNX-11 Sequoia NP (AT846)

Using English Units (Switch to International System of Units)
Date/ Time (PST) Wind (mph) Vis. (mi) Weather Sky Cond. Temp (°F) Rel. Humidity Wind Chill (°F) Heat Index (°F) Pressure Precip. (in)
Air Dwpt 6 hour Altimeter (inHg) Sea level (inHg) 1 hr 3 hr 6 hr
Max Min
Feb 20 21:10 Calm   Clear   21 17     83%              
Feb 20 21:00 Calm   Clear   20 16     83%              
Feb 20 20:55 Calm   Clear   21 17     83%     29.97        
Feb 20 20:50 Calm   Clear   21 17     83%     29.97        
Feb 20 20:45 Calm   Clear   21 17     83%     29.97        
Feb 20 20:40 Calm   Clear   21 17     83%     29.97        
Feb 20 20:30 Calm   Clear   21 17     83%     29.96        
Feb 20 20:20 Calm   Clear   21 17     83%     29.96        
Feb 20 20:15 Calm   Clear   21 17     83%     29.96        
Feb 20 20:00 Calm   Clear   21 17     83%     29.96        
Feb 20 19:55 Calm   Clear   20 16     83%     29.96        
Feb 20 19:50 Calm   Clear   20 16     83%              
Feb 20 19:45 Calm   Clear   20 16     84%              
Feb 20 19:40 Calm   Clear   20 16     83%              
Feb 20 19:30 Calm   Clear   20 15     82%     29.95        
Feb 20 19:25 Calm   Clear   21 16     82%     29.96        
Feb 20 19:20 Calm   Clear   21 16     82%     29.95        
Feb 20 19:15 Calm   Clear   20 16     83%     29.95        
Feb 20 19:10 Calm   Clear   20 16     83%     29.95        
Feb 20 19:00 Calm   Clear   20 16     83%     29.95        
Feb 20 18:55 Calm   Clear   21 17     83%     29.95        
Feb 20 18:50 Calm   Clear   21 16     82%     29.96        
Feb 20 18:45 Calm   Clear   21 16     82%     29.95        
Feb 20 18:36 Calm   Clear   22 17     81%     29.95        
Feb 20 18:31 Calm   Clear   23 18     82%     29.96        
Feb 20 18:26 Calm   Clear   23 18     81%     29.96        
Feb 20 18:21 Calm   Clear   23 18     81%     29.96        
Feb 20 18:16 Calm   Clear   23 18     81%     29.96        
Feb 20 18:11 Calm   Clear   23 18     81%     29.96        
Feb 20 18:06 Calm   Clear   23 19     83%     29.96        
Feb 20 18:01 Calm   Clear   23 19     84%     29.96        
Feb 20 17:56 Calm   Clear   22 18     84%              
Feb 20 17:51 Calm   Clear   22 18     84%     29.97        
Feb 20 17:46 Calm   Clear   22 18     84%     29.97        
Feb 20 17:41 Calm   Clear   22 18     84%     29.97        
Feb 20 17:36 Calm   Clear   22 18     83%     29.97        
Feb 20 17:31 Calm   Clear   22 17     82%     29.97        
Feb 20 17:26 Calm   Clear   22 18     83%     29.97        
Feb 20 17:21 Calm   Clear   22 18     84%     29.97        
Feb 20 17:16 Calm   Clear   22 18     85%     29.97        
Feb 20 17:11 Calm   Clear   22 18     85%     29.97        
Feb 20 17:06 Calm   Clear   22 18     85%     29.97        
Feb 20 17:01 WSW 2   Clear   22 18     83%     29.97        
Feb 20 16:56 Calm   Clear   22 18     84%              
Feb 20 16:51 Calm   Clear   22 18     84%              
Feb 20 16:46 WSW 1   Clear   22 18     83%     29.97        
Feb 20 16:41 Calm   Clear   22 18     84%     29.97        
Feb 20 16:36 Calm   Clear   22 18     85%     29.97        
Feb 20 16:31 Calm   Clear   22 18     84%     29.97        
Feb 20 16:26 Calm   Clear   22 18     83%     29.97        
Feb 20 16:21 Calm   Clear   22 18     83%     29.97        
Feb 20 16:16 SW 1   Clear   22 17     81%     29.97        
Feb 20 16:11 Calm   Clear   22 17     81%     29.97        
Feb 20 16:01 WSW 2   Clear   22 17     81%     29.97        
Feb 20 15:56 Calm   Clear   22 17     82%              
Feb 20 15:51 Calm   Clear   22 17     82%     29.97        
Feb 20 15:46 WSW 1   Clear   22 18     83%              
Feb 20 15:34 WSW 2   Clear   22 18     84%              
Feb 20 15:24 WSW 1   Clear   22 17     82%     29.96        
Feb 20 15:19 WSW 2   Clear   22 17     82%     29.97        
Feb 20 15:04 SW 2   Clear   22 17     81%     29.96        
Feb 20 14:52 Calm   Clear   22 17     82%     29.96        
Feb 20 14:32 Calm   Clear   22 18     84%     29.96        
Feb 20 14:27 SW 1   Clear   22 18     83%     29.97        
Feb 20 14:17 SSW 2   Clear   22 17     82%     29.96        
Feb 20 14:12 SW 2   Clear   22 18     83%     29.96        
Feb 20 14:02 Calm   Clear   22 18     84%     29.96        
Feb 20 13:52 WSW 1   Clear   21 17     84%     29.96        
Feb 20 13:47 WSW 2   Clear   21 17     83%     29.96        
Feb 20 13:22 SW 3   Clear   21 17     84% 17            
Feb 20 13:12 WSW 3   Clear   21 17     84% 17   29.97        
Feb 20 13:07 SW 3   Clear   21 17     85% 17   29.97        
Feb 20 12:57 SW 2   Clear   20 16     85%              
Feb 20 12:52 WSW 2   Clear   21 17     84%              
Feb 20 12:42 WSW 4   Clear   21 17     83% 15   29.96        
Feb 20 12:37 WSW 4   Clear   21 17     83% 15            
Feb 20 12:27 SW 3   Clear   21 16     82% 17   29.96        
Feb 20 12:22 SW 4   Clear   21 16     82% 15   29.96        
Feb 20 12:12 SW 3   Clear   22 17     82% 18   29.96        
Feb 20 12:07 SW 3   Clear   22 17     81% 18   29.96        
Feb 20 12:02 SW 4   Clear   22 17     82% 17   29.96        
Feb 20 11:57 SW 4   Clear   22 17     82% 17            
Feb 20 11:52 WSW 3   Clear   22 18     84% 18            
Feb 20 11:42 SW 5   Clear   21 17     83% 14   29.97        
Feb 20 11:37 SW 4   Clear   21 17     83% 15   29.96        
Feb 20 11:32 SW 5   Clear   21 16     81% 14   29.96        
Feb 20 11:27 SW 6   Clear   22 17     82% 14   29.96        
Feb 20 11:12 SSW 1   Clear   22 17     81%     29.96        
Feb 20 11:07 WSW 1   Clear   21 16     82%     29.97        
Feb 20 11:02 SW 3   Clear   21 16     81% 17   29.97        
Feb 20 10:57 WSW 2   Clear   21 16     82%     29.97        
Feb 20 10:52 SW 3   Clear   21 15     78% 17            
Feb 20 10:47 SW 3   Clear   21 15     78% 17            
Feb 20 10:42 SW 3   Clear   21 16     79% 17            
Feb 20 10:37 WSW 3   Clear   21 15     77% 17   29.97        
Feb 20 10:32 SW 3   Clear   20 14     77% 16   29.97        
Feb 20 10:27 SW 3   Clear   20 14     78% 16   29.97        
Feb 20 10:22 WSW 3   Clear   20 15     79% 16   29.97        
Feb 20 10:17 SW 2   Clear   19 13     78%     29.97        
Feb 20 10:12 SW 1   Clear   19 13     78%     29.97        
Feb 20 10:07 Calm   Clear   18 13     80%     29.96        
Feb 20 10:02 Calm   Clear   18 13     80%     29.97        
Feb 20 09:42 Calm   Clear   16 12     83%     29.97        
Feb 20 09:36 SSW 1   Clear   15 11     82%     29.97        
Feb 20 09:31 SSW 1   Clear   15 11     83%     29.97        
Feb 20 09:16 SSW 1   Clear   14 10     85%     29.97        
Feb 20 09:11 SSW 1   Clear   14 11     86%     29.97        
Feb 20 09:06 SSW 1   Clear   13 10     87%     29.97        
Feb 20 09:01 SSW 1   Clear   12 9     87%     29.97        
Feb 20 08:56 Calm   Clear   12 9     88%     29.97        
Feb 20 08:51 Calm   Clear   11 8     88%              
Feb 20 08:46 Calm   Clear   10 7     89%     29.97        
Feb 20 08:41 Calm   Clear   9 6     88%     29.96        
Feb 20 08:36 Calm   Clear   9 6     87%     29.96        
Feb 20 08:26 Calm   Clear   7 4     86%     29.96        
Feb 20 08:21 Calm   Clear   7 3     85%     29.96        
Feb 20 08:15 Calm   Clear   6 2     84%     29.96        
Feb 20 08:10 Calm   Clear   5 1     83%     29.96        
Feb 20 07:56 Calm   Clear   4 0     83%              
Feb 20 07:51 Calm   Clear   4 0     82%              
Feb 20 07:41 Calm   Clear   4 -1     81%     29.94        
Feb 20 07:36 Calm   Clear   4 0     82%     29.94        
Feb 20 07:21 Calm   Clear   4 0     82%     29.94        
Feb 20 07:16 Calm   Clear   3 -1     82%     29.93        
Feb 20 07:01 Calm   Clear   3 -1     82%     29.92        
Feb 20 06:56 Calm   Clear   3 -1     81%              
Feb 20 06:51 Calm   Clear   3 -1     81%              
Feb 20 06:46 Calm   Clear   3 -1     82%              
Feb 20 06:41 Calm   Clear   3 -1     82%     29.94        
Feb 20 06:36 Calm   Clear   3 -1     82%     29.93        
Feb 20 06:31 Calm   Clear   3 -1     82%     29.93        
Feb 20 06:26 Calm   Clear   3 -1     82%     29.93        
Feb 20 06:21 Calm   Clear   3 -1     82%     29.93        
Feb 20 06:11 Calm   Clear   3 -1     82%     29.92        
Feb 20 06:06 Calm   Clear   3 -1     82%     29.92        
Feb 20 06:01 Calm   Clear   3 -1     82%     29.92        
Feb 20 05:56 Calm   Clear   3 -1     82%     29.92        
Feb 20 05:51 Calm   Clear   3 -1     82%     29.92        
Feb 20 05:46 Calm   Clear   3 -1     82%              
Feb 20 05:41 Calm   Clear   3 -1     82%              
Feb 20 05:36 Calm   Clear   3 -1     82%     29.91        
Feb 20 05:31 Calm   Clear   3 -1     82%     29.91        
Feb 20 05:26 Calm   Clear   3 -1     82%     29.91        
Feb 20 05:21 Calm   Clear   3 -1     82%              
Feb 20 05:16 Calm   Clear   3 -1     81%     29.91        
Feb 20 05:11 Calm   Clear   3 -1     81%     29.9        
Feb 20 05:06 Calm   Clear   4 -1     81%     29.9        
Feb 20 05:01 Calm   Clear   3 -1     81%     29.9        
Feb 20 04:56 Calm   Clear   3 -1     82%     29.9        
Feb 20 04:51 Calm   Clear   3 -1     81%     29.9        
Feb 20 04:46 Calm   Clear   4 -1     81%     29.9        
Feb 20 04:41 Calm   Clear   4 -1     81%     29.89        
Feb 20 04:36 Calm   Clear   4 -1     81%     29.89        
Feb 20 04:31 Calm   Clear   4 0     82%     29.89        
Feb 20 04:26 Calm   Clear   4 0     82%     29.89        
Feb 20 04:21 Calm   Clear   4 -1     81%     29.89        
Feb 20 04:16 Calm   Clear   4 -1     81%     29.88        
Feb 20 04:11 Calm   Clear   4 -1     80%     29.88        
Feb 20 04:01 Calm   Clear   4 -1     80%     29.87        
Feb 20 03:49 Calm   Clear   4 -1     80%     29.87        
Feb 20 03:44 Calm   Clear   4 -1     80%     29.87        
Feb 20 03:39 Calm   Clear   5 0     80%     29.87        
Feb 20 03:34 Calm   Clear   4 -1     80%     29.89        
Feb 20 03:29 Calm   Clear   5 0     81%     29.89        
Feb 20 03:19 Calm   Clear   4 0     82%     29.89        
Feb 20 03:14 Calm   Clear   4 0     82%     29.89        
Feb 20 03:09 Calm   Clear   4 0     82%     29.89        
Feb 20 03:04 Calm   Clear   4 -1     81%     29.88        
Feb 20 02:59 Calm   Clear   4 0     82%     29.88        
Feb 20 02:54 Calm   Clear   4 0     82%     29.88        
Feb 20 02:44 Calm   Clear   5 0     81%     29.88        
Feb 20 02:39 Calm   Clear   5 1     82%     29.88        
Feb 20 02:34 Calm   Clear   5 1     82%     29.88        
Feb 20 02:29 Calm   Clear   5 1     82%     29.88        
Feb 20 02:24 Calm   Clear   5 0     81%     29.88        
Feb 20 02:19 Calm   Clear   5 1     82%     29.87        
Feb 20 02:14 Calm   Clear   5 1     82%     29.87        
Feb 20 02:07 Calm   Clear   5 0     81%     29.87        
Feb 20 02:02 Calm   Clear   5 0     81%     29.87        
Feb 20 01:57 Calm   Clear   5 0     81%     29.87        
Feb 20 01:52 Calm   Clear   5 0     81%     29.87        
Feb 20 01:47 Calm   Clear   5 0     81%     29.87        
Feb 20 01:42 Calm   Clear   5 0     81%     29.87        
Feb 20 01:37 Calm   Clear   5 0     81%     29.87        
Feb 20 01:32 Calm   Clear   6 1     80%     29.87        
Feb 20 01:27 Calm   Clear   6 1     80%     29.87        
Feb 20 01:22 Calm   Clear   6 1     81%     29.87        
Feb 20 01:17 Calm   Clear   6 1     81%     29.87        
Feb 20 01:12 Calm   Clear   6 1     81%     29.88        
Feb 20 01:07 Calm   Clear   6 1     81%     29.88        
Feb 20 01:02 Calm   Clear   6 1     81%     29.88        
Feb 20 00:57 Calm   Clear   6 1     81%     29.88        
Feb 20 00:52 Calm   Clear   6 1     81%     29.88        
Feb 20 00:47 Calm   Clear   7 2     80%     29.87        
Feb 20 00:42 Calm   Clear   7 2     80%     29.87        
Feb 20 00:37 Calm   Clear   7 2     81%     29.87        
Feb 20 00:32 Calm   Clear   7 2     80%     29.86        
Feb 20 00:27 Calm   Clear   7 2     80%     29.86        
Feb 20 00:22 Calm   Clear   7 2     80%     29.86        
Feb 20 00:17 Calm   Clear   8 3     81%              
Feb 20 00:12 Calm   Clear   8 3     81%     29.86        
Feb 20 00:07 Calm   Clear   8 3     81%     29.86        
Feb 20 00:02 Calm   Clear   8 3     81%     29.86        
Feb 19 23:57 Calm   Clear   8 3     81%              
Feb 19 23:52 Calm   Clear   8 3     81%     29.86        
Feb 19 23:47 Calm   Clear   8 3     81%     29.86        
Feb 19 23:42 Calm   Clear   9 4     81%     29.86        
Feb 19 23:28 Calm   Clear   9 4     81%     29.86        
Feb 19 23:23 Calm   Clear   9 4     81%     29.85        
Feb 19 23:18 Calm   Clear   10 5     81%     29.85        
Feb 19 23:13 Calm   Clear   10 5     81%     29.85        
Feb 19 23:08 Calm   Clear   10 5     81%     29.87        
Feb 19 23:03 Calm   Clear   11 6     80%     29.87        
Feb 19 22:48 Calm   Clear   11 6     81%     29.86        
Feb 19 22:43 Calm   Clear   11 6     81%     29.86        
Feb 19 22:38 Calm   Clear   12 8     82%     29.85        
Feb 19 22:33 Calm   Clear   12 8     82%     29.85        
Feb 19 22:28 Calm   Clear   12 7     81%     29.85        
Feb 19 22:23 Calm   Clear   12 7     81%     29.85        
Feb 19 22:18 Calm   Clear   13 8     81%     29.84        
Feb 19 22:08 Calm   Clear   13 9     82%     29.84        
Feb 19 22:03 Calm   Clear   14 10     82%     29.83        
Feb 19 21:58 Calm   Clear   14 10     82%              
Feb 19 21:53 Calm   Clear   14 10     83%              
Feb 19 21:48 Calm   Clear   14 10     83%              
Feb 19 21:43 Calm   Clear   15 11     83%              
Feb 19 21:33 Calm   Clear   15 11     84%     29.82        
Feb 19 21:28 Calm   Clear   15 11     84%              
Feb 19 21:18 Calm   Clear   16 12     84%     29.81        
Feb 19 21:13 Calm   Clear   16 12     84%     29.8        
Feb 19 21:07 Calm   Clear   16 12     84%     29.8        
Feb 19 20:54 Calm   Clear   17 14     87%     29.79        
Feb 19 20:44 Calm   Clear   17 14     87%              
Feb 19 20:39 Calm   Clear   17 14     87%     29.78        
Feb 19 20:34 Calm   Clear   17 14     88%     29.81        
Feb 19 20:29 Calm   Clear   17 14     87%     29.81        
Feb 19 20:24 Calm   Clear   17 14     86%     29.8        
Feb 19 20:19 Calm   Clear   18 15     86%     29.8        
Feb 19 20:14 Calm   Clear   18 15     87%     29.8        
Feb 19 20:04 Calm   Clear   17 14     88%     29.79        
Feb 19 19:54 Calm   Clear   17 14     87%     29.78        
Feb 19 19:44 Calm   Clear   17 14     87%              
Feb 19 19:39 Calm   Clear   17 14     88%     29.78        
Feb 19 19:34 Calm   Clear   17 14     88%     29.78        
Feb 19 19:24 Calm   Clear   17 14     88%     29.78        
Feb 19 19:19 Calm   Clear   17 14     88%     29.78        
Feb 19 19:14 Calm   Clear   17 14     89%     29.78        
Feb 19 19:09 Calm   Clear   17 15     90%     29.77        
Feb 19 19:04 Calm   Clear   16 14     90%     29.77        
Feb 19 18:54 Calm   Clear   16 13     89%     29.77        
Feb 19 18:49 Calm   Clear   16 13     87%              
Feb 19 18:44 SSW 1   Clear   17 14     86%              
Feb 19 18:39 Calm   Clear   17 14     86%              
Feb 19 18:34 Calm   Clear   17 14     87%     29.76        
Feb 19 18:29 Calm   Clear   17 14     89%     29.76        
Feb 19 18:24 Calm   Clear   17 14     87%     29.75        
Feb 19 18:19 Calm   Clear   17 14     87%     29.75        
Feb 19 18:14 Calm   Clear   18 15     87%     29.77        
Feb 19 18:09 SSW 1   Clear   18 15     87%              
Feb 19 18:04 Calm   Clear   18 15     87%     29.77        
Feb 19 17:54 Calm   Clear   18 15     88%     29.76        
Feb 19 17:49 Calm   Clear   18 15     88%     29.75        
Feb 19 17:44 Calm   Clear   18 15     88%     29.75        
Feb 19 17:39 Calm   Clear   18 15     88%              
Feb 19 17:34 Calm   Clear   18 15     88%     29.75        
Feb 19 17:24 Calm   Clear   18 15     88%     29.74        
Feb 19 17:19 Calm   Clear   18 15     88%     29.74        
Feb 19 17:14 Calm   Clear   18 15     87%     29.74        
Feb 19 17:09 SSW 1   Clear   18 15     87%     29.73        
Feb 19 17:04 Calm   Clear   18 15     87%              
Feb 19 16:54 Calm   Clear   18 15     86%              
Feb 19 16:49 Calm   Clear   18 14     84%              
Feb 19 16:44 Calm   Clear   18 14     84%              
Feb 19 16:39 Calm   Clear   18 15     87%     29.75        
Feb 19 16:34 Calm   Clear   18 15     87%     29.75        
Feb 19 16:29 WSW 1   Clear   18 15     87%     29.75        
Feb 19 16:24 Calm   Clear   18 15     87%     29.74        
Feb 19 16:19 Calm   Clear   18 15     87%     29.74        
Feb 19 16:09 WSW 1   Clear   18 15     87%     29.73        
Feb 19 16:04 WSW 1   Clear   18 15     88%     29.73        
Feb 19 15:49 SW 3   Clear   18 15     88% 13   29.72        
Feb 19 15:44 SW 1   Clear   18 15     87%     29.72        
Feb 19 15:34 WSW 3   Clear   18 15     86% 13   29.71        
Feb 19 15:24 WSW 3   Clear   18 15     88% 13   29.71        
Feb 19 15:19 SW 1   Clear   18 15     89%     29.7        
Feb 19 15:14 SW 3   Clear   18 15     89% 13   29.72        
Feb 19 15:04 WSW 1   Clear   18 15     88%     29.72        
Feb 19 14:59 SW 2   Clear   18 15     88%              
Feb 19 14:54 WSW 3   Clear   18 15     87% 13            
Feb 19 14:49 SW 2   Clear   19 16     87%              
Feb 19 14:44 Calm   Clear   19 16     87%     29.7        
Feb 19 14:39 SW 1   Clear   19 16     88%     29.7        
Feb 19 14:33 SW 3   Clear   19 16     87% 15   29.7        
Feb 19 14:27 SSW 1   Clear   18 15     87%     29.7        
Feb 19 14:20 SW 2   Clear   18 15     88%     29.7        
Feb 19 14:15 SSW 1   Clear   18 15     87%     29.7        
Feb 19 14:10 SW 2   Clear   18 15     86%     29.7        
Feb 19 14:05 WSW 1   Clear   18 15     86%     29.69        
Feb 19 14:00 WSW 3   Clear   18 14     85% 13   29.69        
Feb 19 13:50 WSW 2   Clear   19 15     85%              
Feb 19 13:40 W 1   Clear   19 16     87%     29.7        
Feb 19 13:35 Calm   Clear   19 17     90%     29.7        
Feb 19 13:30 SSW 2   Clear   18 16     90%     29.7        
Feb 19 13:20 Calm   Clear   17 14     89%     29.7        
Feb 19 13:15 SW 1   Clear   17 14     88%     29.7        
Feb 19 13:10 WSW 3   Clear   17 14     87% 12   29.69        
Feb 19 13:05 WSW 3   Clear   17 14     87% 12   29.69        
Feb 19 12:50 SW 6   Clear   18 14     85% 10            
Feb 19 12:45 SSW 2   Clear   18 14     85%              
Feb 19 12:40 SW 2   Clear   18 14     85%     29.68        
Feb 19 12:35 WSW 3   Clear   18 14     84% 13   29.67        
Feb 19 12:30 Calm   Clear   18 15     86%     29.67        
Feb 19 12:20 NW 3   Clear   18 14     85% 13   29.67        
Feb 19 12:15 Calm   Clear   18 15     87%     29.7        
Feb 19 12:10 Calm   Clear   18 15     86%     29.69        
Feb 19 11:59 Calm   Clear   17 13     84%     29.69        
Feb 19 11:54 Calm   Clear   16 12     85%              
Feb 19 11:49 S 1   Clear   15 12     87%     29.7        
Feb 19 11:44 Calm   Clear   15 12     88%              
Feb 19 11:39 Calm   Clear   15 12     88%              
Feb 19 11:34 SW 1   Clear   15 12     87%     29.7        
Feb 19 11:29 SW 2   Clear   16 13     87%              
Feb 19 11:24 SW 2   Clear   15 12     88%     29.69        
Feb 19 11:18 SW 1   Clear   16 13     87%     29.69        
Feb 19 11:13 SSW 2   Clear   16 12     85%              
Feb 19 11:03 SSW 2   Clear   16 13     87%              
Feb 19 10:58 SSW 5   Clear   16 13     88% 8            
Feb 19 10:48 SW 4   Clear   16 13     87% 10   29.67        
Feb 19 10:43 SW 3   Clear   16 13     88% 11   29.69        
Feb 19 10:38 SW 5   Clear   16 13     88% 8   29.69        
Feb 19 10:33 SW 3   Clear   16 13     88% 11   29.69        
Feb 19 10:28 SW 5   Clear   16 13     88% 8   29.68        
Feb 19 10:18 W 2   Clear   16 13     88%     29.67        
Feb 19 10:13 SSW 3   Clear   16 13     89% 11   29.67        
Feb 19 10:08 Calm   Clear   16 13     88%              
Feb 19 10:03 WSW 1   Clear   16 13     87%     29.66        
Feb 19 09:58 WSW 2   Clear   16 13     86%              
Feb 19 09:48 Calm   Clear   17 14     87%              
Feb 19 09:41 WSW 1   Clear   17 13     85%              
Feb 19 09:29 SSW 4   Clear   17 12     82% 11   29.66        
Feb 19 09:24 SW 1   Clear   17 13     85%     29.66        
Feb 19 09:19 SW 3   Clear   17 14     86% 12   29.66        
Feb 19 09:14 WSW 2   Clear   17 14     87%     29.66        
Feb 19 09:09 SW 2   Clear   17 14     87%     29.66        
Feb 19 08:59 NNE 2   Clear   17 13     83%              
Feb 19 08:54 SSW 2   Clear   16 10     77%              
Feb 19 08:49 SSE 1   Clear   16 11     81%              
Feb 19 08:44 SSE 1   Clear   16 11     81%     29.65        
Feb 19 08:39 SSE 2   Clear   16 11     82%     29.65        
Feb 19 08:34 Calm   Clear   16 11     82%              
Feb 19 08:29 S 1   Clear   16 11     81%              
Feb 19 08:24 SSW 1   Clear   16 11     81%     29.68        
Feb 19 08:19 SE 2   Clear   16 12     83%     29.68        
Feb 19 08:14 SE 1   Clear   16 12     84%              
Feb 19 08:09 WSW 1   Clear   16 13     88%              
Feb 19 08:04 WSW 1   Clear   16 13     87%              
Feb 19 07:59 WSW 1   Clear   16 13     87%              
Feb 19 07:54 Calm   Clear   16 13     88%              
Feb 19 07:43 WSW 1   Clear   16 13     88%              
Feb 19 07:38 SW 1   Clear   16 13     89%     29.67        
Feb 19 07:11 SSW 2   Clear   16 13     87%     29.66        
Feb 19 07:02 SSW 1   Clear   16 13     86%     29.66        
Feb 19 06:57 Calm   Clear   16 13     86%              
Feb 19 06:52 Calm   Clear   16 12     84%              
Feb 19 06:47 S 1   Clear   16 12     84%              
Feb 19 06:42 Calm   Clear   16 13     87%     29.66        
Feb 19 06:37 Calm   Clear   17 14     87%     29.65        
Feb 19 06:32 Calm   Clear   17 14     88%     29.65        
Feb 19 06:27 Calm   Clear   16 13     87%     29.65        
Feb 19 06:22 Calm   Clear   16 13     87%              
Feb 19 06:17 Calm   Clear   16 13     87%     29.65        
Feb 19 06:12 Calm   Clear   17 14     87%              
Feb 19 06:07 Calm   Clear   16 13     88%     29.65        
Feb 19 06:02 Calm   Clear   16 13     88%              
Feb 19 05:57 Calm   Clear   16 13     87%              
Feb 19 05:52 Calm   Clear   16 13     88%              
Feb 19 05:47 Calm   Clear   16 13     87%     29.65        
Feb 19 05:42 Calm   Clear   17 14     86%     29.65        
Feb 19 05:37 Calm   Clear   17 14     86%     29.65        
Feb 19 05:32 Calm   Clear   17 14     87%              
Feb 19 05:27 Calm   Clear   17 14     88%     29.64        
Feb 19 05:22 Calm   Clear   17 14     88%     29.66        
Feb 19 05:17 WSW 1   Clear   17 14     88%     29.66        
Feb 19 05:12 Calm   Clear   17 14     89%     29.66        
Feb 19 05:07 Calm   Clear   17 14     89%     29.66        
Feb 19 05:02 WSW 1   Clear   17 14     88%              
Feb 19 04:51 Calm   Clear   17 14     88%              
Feb 19 04:42 Calm   Clear   17 14     89%              
Feb 19 04:37 Calm   Clear   17 14     88%              
Feb 19 04:32 Calm   Clear   17 14     88%     29.65        
Feb 19 04:27 WSW 2   Clear   17 14     89%     29.66        
Feb 19 04:22 WSW 1   Clear   17 14     88%     29.65        
Feb 19 04:17 WSW 2   Clear   17 14     87%     29.66        
Feb 19 04:12 WSW 1   Clear   17 14     87%     29.66        
Feb 19 03:56 SW 1   Clear   18 15     86%              
Feb 19 03:51 SW 1   Clear   18 15     86%              
Feb 19 03:46 Calm   Clear   18 15     86%     29.65        
Feb 19 03:41 Calm   Clear   18 14     85%              
Feb 19 03:36 Calm   Clear   18 14     85%     29.66        
Feb 19 03:31 Calm   Clear   18 15     86%     29.65        
Feb 19 03:21 Calm   Clear   18 15     86%     29.66        
Feb 19 03:11 Calm   Clear   17 14     86%     29.66        
Feb 19 03:06 Calm   Clear   17 13     85%              
Feb 19 02:51 Calm   Clear   17 13     84%              
Feb 19 02:46 Calm   Clear   17 13     84%              
Feb 19 02:36 WSW 2   Clear   17 13     85%              
Feb 19 02:31 SSW 1   Clear   18 15     86%              
Feb 19 02:26 SW 1   Clear   18 14     85%     29.66        
Feb 19 02:21 SSW 2   Clear   18 15     86%     29.66        
Feb 19 02:16 WSW 1   Clear   18 15     87%     29.67        
Feb 19 02:11 Calm   Clear   18 15     86%     29.67        
Feb 19 02:02 WSW 2   Clear   18 15     86%     29.66        
Feb 19 01:57 SW 2   Clear   19 14     82%              
Feb 19 01:53 SW 1   Clear   19 15     83%              
Feb 19 01:47 Calm   Clear   19 15     83%              
Feb 19 01:42 Calm   Clear   19 15     85%              
Feb 19 01:37 Calm   Clear   19 15     84%              
Feb 19 01:32 SW 4   Clear   19 15     85% 13            
Feb 19 01:27 WSW 4   Clear   19 15     85% 13            
Feb 19 01:22 WSW 5   Clear   20 17     87% 13            
Feb 19 01:17 Calm   Clear   20 17     88%     29.68        
Feb 19 01:12 Calm   Clear   20 17     87%     29.68        
Feb 19 01:07 SSW 2   Clear   20 17     87%     29.68        
Feb 19 01:02 SSW 2   Clear   20 17     87%     29.68        
Feb 19 00:57 WSW 3   Clear   20 17     88% 16            
Feb 19 00:52 SW 1   Clear   20 17     88%              
Feb 19 00:47 WSW 1   Clear   20 17     89%              
Feb 19 00:42 SSW 2   Clear   20 17     88%              
Feb 19 00:37 WSW 1   Clear   20 17     88%              
Feb 19 00:32 SW 2   Clear   20 17     88%              
Feb 19 00:27 SW 1   Clear   20 17     88%              
Feb 19 00:22 SSW 2   Clear   20 17     87%              
Feb 19 00:17 Calm   Clear   20 17     88%     29.68        
Feb 19 00:05 SW 1   Clear   21 19     90%     29.68        
Feb 19 00:00 Calm   Clear   21 18     89%     29.67        
Feb 18 23:55 SW 2   Clear   21 18     88%              
Feb 18 23:50 Calm   Clear   21 19     90%              
Feb 18 23:45 SW 2   Clear   21 19     90%              
Feb 18 23:35 WSW 3   Clear   21 19     90% 17   29.69        
Feb 18 23:30 SW 7   Clear   22 20     90% 13   29.68        
Feb 18 23:25 SW 1   Clear   22 20     92%              
Feb 18 23:20 W 1   Clear   22 20     92%     29.68        
Feb 18 23:15 WSW 1   Clear   22 20     93%     29.68        
Feb 18 23:10 WSW 5   Clear   22 20     92% 15   29.68        
Feb 18 23:05 WSW 4   Clear   22 20     92% 17   29.67        
Feb 18 23:00 SSW 3   Clear   23 21     92% 19   29.67        
Feb 18 22:55 WSW 5   Clear   23 21     92% 17            
Feb 18 22:50 SW 2   Clear   23 21     92%              
Feb 18 22:45 SW 4   Clear   23 21     92% 18            
Feb 18 22:40 WSW 1   Clear   23 21     92%              
Feb 18 22:35 WSW 4   Clear   24 22     91% 19            
Feb 18 22:30 SW 1   Clear   24 22     92%              
Feb 18 22:25 W 1   Clear   24 22     92%     29.67        
Feb 18 22:20 SW 1   Clear   24 22     92%     29.68        
Feb 18 22:14 Calm   Clear   24 22     92%     29.68        
Feb 18 22:02 Calm   Clear   24 22     92%     29.69        
Feb 18 21:53 WSW 1   Clear   24 22     92%     29.71        
Feb 18 21:48 WSW 2   Clear   24 22     91%              
Feb 18 21:43 WSW 4   Clear   24 22     90% 19            
Feb 18 21:38 WSW 2   Clear   25 23     91%     29.71        
Feb 18 21:33 WSW 2   Clear   25 22     90%              
Feb 18 21:28 W 1   Clear   25 22     90%     29.71        
Feb 18 21:23 WNW 2   Clear   26 23     89%     29.71        
Feb 18 21:18 W 3   Clear   27 24     88% 24   29.71        
Feb 18 21:13 NW 2   Clear   27 24     87%     29.7        
Feb 18 21:08 NNW 2   Clear   28 25     87%     29.7        
Feb 18 21:03 NNW 1   Clear   28 25     87%     29.7        
Feb 18 20:58 NW 2   Clear   28 25     88%              
Feb 18 20:53 Calm   Clear   28 25     87%     29.7        
Feb 18 20:48 SW 2   Clear   28 25     89%              
Feb 18 20:43 WSW 1   Clear   28 25     88%              
Feb 18 20:38 SW 2   Clear   28 25     89%              
Feb 18 20:33 WSW 1   Clear   28 25     90%     29.71        
Feb 18 20:28 WSW 2   Clear   28 25     89%              
Feb 18 20:23 SW 6   Clear   29 26     89% 23   29.72        
Feb 18 20:08 SW 3   Clear   29 26     88% 26   29.72        
Feb 18 19:58 WSW 1   Clear   29 26     90%              
Feb 18 19:53 SW 2   Clear   29 26     89%              
Feb 18 19:48 SW 4   Clear   30 27     90% 26            
Feb 18 19:43 W 4   Clear   30 27     90% 26            
Feb 18 19:33 WSW 1   Clear   30 27     90%     29.71        
Feb 18 19:28 NW 1   Clear   30 27     90%              
Feb 18 19:23 WNW 2   Clear   30 27     90%     29.71        
Feb 18 19:18 WSW 1   Clear   30 27     89%     29.72        
Feb 18 19:13 SW 3   Clear   31 28     88% 28            
Feb 18 18:55 WSW 3   Clear   32 28     86% 29            
Feb 18 18:50 WSW 1   Clear   32 28     86%              
Feb 18 18:45 W 2   Clear   33 29     86%              
Feb 18 18:40 WSW 2   Clear   33 29     85%              
Feb 18 18:25 WNW 2   Clear   34 29     82%     29.75        
Feb 18 18:20 W 1   Clear   34 29     81%     29.75        
Feb 18 18:10 NNW 1   Clear   34 28     78%     29.76        
Feb 18 18:05 NNW 1   Clear   34 28     77%     29.76        
Feb 18 18:00 WSW 1   Clear   35 29     77%     29.76        
Feb 18 17:50 W 1   Clear   35 28     75%     29.76        
Feb 18 17:45 Calm   Clear   35 28     74%              
Feb 18 17:40 N 2   Clear   35 27     73%              
Feb 18 17:35 WSW 2   Clear   35 27     72%     29.77        
Feb 18 17:30 W 1   Clear   35 27     72%     29.77        
Feb 18 17:25 SW 1   Clear   35 27     72%     29.77        
Feb 18 17:20 NNW 1   Clear   36 28     72%     29.8        
Feb 18 17:15 Calm   Clear   36 28     71%     29.8        
Feb 18 17:10 NW 2   Clear   36 28     71%     29.8        
Feb 18 17:05 NNW 2   Clear   36 27     70%              
Feb 18 17:00 NNW 1   Clear   36 27     70%     29.8        
Feb 18 16:55 W 2   Clear   37 28     69%              
Feb 18 16:50 SW 2   Clear   37 28     69%              
Feb 18 16:45 W 1   Clear   37 28     69%              
Feb 18 16:40 WSW 2   Clear   37 28     70%              
Feb 18 16:34 WSW 2   Clear   37 28     69%              
Feb 18 16:29 WSW 2   Clear   37 28     69%              
Feb 18 16:22 WNW 2   Clear   38 28     68%              
Feb 18 16:17 SW 1   Clear   38 28     68%              
Feb 18 16:12 W 1   Clear   38 29     69%     29.82        
Feb 18 16:07 SW 1   Clear   38 28     68%     29.82        
Feb 18 16:02 SW 3   Clear   38 28     67% 36   29.82        
Feb 18 15:57 W 2   Clear   39 29     66%              
Feb 18 15:52 WSW 1   Clear   39 28     65%              
Feb 18 15:47 WSW 2   Clear   39 28     65%     29.82        
Feb 18 15:42 WSW 2   Clear   39 28     64%              
Feb 18 15:37 WSW 4   Clear   40 28     63% 37   29.82        
Feb 18 15:32 WSW 4   Clear   40 28     62% 37   29.83        
Feb 18 15:27 WSW 4   Clear   41 29     61% 38   29.83        
Feb 18 15:22 SW 5   Clear   42 29     60% 39   29.83        
Feb 18 15:17 SW 5   Clear   41 29     61% 38   29.83        
Feb 18 15:12 SW 2   Clear   41 29     62%     29.83        
Feb 18 15:07 WSW 2   Clear   41 29     62%     29.83        
Feb 18 15:02 WSW 5   Clear   41 29     61% 38   29.83        
Feb 18 14:57 SW 4   Clear   42 29     59% 40            
Feb 18 14:52 SW 5   Clear   43 29     57% 40            
Feb 18 14:47 SW 4   Clear   43 29     57% 41   29.83        
Feb 18 14:42 SW 5   Clear   42 28     57% 39            
Feb 18 14:37 SW 3   Clear   42 28     58% 41            
Feb 18 14:32 WSW 2   Clear   42 28     57%              
Feb 18 14:18 W 3   Clear   44 28     53% 43   29.86        
Feb 18 14:08 SW 1   Clear   44 28     53%     29.87        
Feb 18 14:03 WSW 6   Clear   45 27     50% 42   29.87        
Feb 18 13:58 SW 4   Clear   45 28     52% 43            
Feb 18 13:43 W 1   Clear   44 28     53%              
Feb 18 13:38 SW 6   Clear   45 28     52% 42            
Feb 18 13:33 SW 3   Clear   45 28     52% 44            
Feb 18 13:23 WSW 3   Clear   44 27     51% 43            
Feb 18 13:18 WSW 4   Clear   44 28     52% 42   29.88        
Feb 18 12:58 SW 6   Clear   44 28     52% 41            
Feb 18 12:53 WSW 6   Clear   44 27     51% 41            
Feb 18 12:43 SW 6   Clear   44 27     50% 41            
Feb 18 12:38 WSW 6   Clear   44 25     47% 41            
Feb 18 12:33 SW 2   Clear   44 27     50%              
Feb 18 12:28 SW 4   Clear   44 26     48% 42            
Feb 18 12:23 SW 6   Clear   45 25     46% 42            
Feb 18 12:18 WSW 1   Clear   45 27     48%              
Feb 18 12:13 WNW 2   Clear   45 27     48%     29.91        
Feb 18 12:08 SW 3   Clear   44 26     49% 43   29.91        
Feb 18 12:03 SW 3   Clear   44 27     50% 43   29.91        
Feb 18 11:58 SW 4   Clear   44 26     48% 42            
Feb 18 11:53 SW 6   Clear   44 25     47% 41            
Feb 18 11:48 SW 6   Clear   44 25     46% 41   29.92        
Feb 18 11:38 SW 2   Clear   44 25     47%     29.92        
Feb 18 11:33 SW 4   Clear   44 24     45% 42   29.92        
Feb 18 11:28 SW 5   Clear   44 24     45% 41   29.92        
Feb 18 11:23 WSW 6   Clear   44 24     45% 41   29.92        
Feb 18 11:18 WSW 3   Clear   43 25     48% 42   29.92        
Feb 18 11:08 SW 5   Clear   43 24     47% 40   29.93        
Feb 18 11:03 SW 3   Clear   43 24     47% 42   29.92        
Feb 18 10:58 WSW 2   Clear   44 25     46%              
Feb 18 10:53 WSW 2   Clear   44 25     47%              
Feb 18 10:43 W 2   Clear   43 24     47%              
Feb 18 10:38 WSW 2   Clear   43 24     47%              
Feb 18 10:33 WSW 3   Clear   43 24     46% 42            
Feb 18 10:28 WSW 3   Clear   43 24     47% 42            
Feb 18 10:23 SW 4   Clear   43 24     47% 41   29.94        
Feb 18 10:13 SW 5   Clear   42 24     48% 39   29.94        
Feb 18 10:08 SW 3   Clear   42 24     49% 41   29.94        
Feb 18 10:03 SW 3   Clear   41 23     48% 39            
Feb 18 09:58 SW 4   Clear   41 24     51% 38            
Feb 18 09:43 SW 3   Clear   39 23     53% 37            
Feb 18 09:38 SSW 1   Clear   39 23     52%              
Feb 18 09:33 SSW 1   Clear   38 22     53%              
Feb 18 09:28 SSW 2   Clear   38 22     51%              
Feb 18 09:23 SW 1   Clear   37 21     52%     29.95        
Feb 18 09:13 SW 1   Clear   36 21     53%     29.96        
Feb 18 09:08 SW 2   Clear   36 22     57%              
Feb 18 09:03 SW 1   Clear   36 21     54%     29.96        
Feb 18 08:58 SW 1   Clear   35 21     57%              
Feb 18 08:53 SW 1   Clear   35 21     57%              
Feb 18 08:43 Calm   Clear   34 22     61%              
Feb 18 08:38 Calm   Clear   34 24     66%              
Feb 18 08:28 Calm   Clear   33 25     71%     29.97        
Feb 18 08:23 Calm   Clear   33 26     74%     29.97        
Feb 18 08:13 Calm   Clear   32 24     73%     29.97        
Feb 18 08:08 Calm   Clear   32 25     74%     29.97        
Feb 18 08:03 Calm   Clear   32 25     75%     29.97        
Feb 18 07:58 Calm   Clear   32 25     75%              
Feb 18 07:53 Calm   Clear   31 24     75%              
Feb 18 07:43 Calm   Clear   31 24     75%     29.98        
Feb 18 07:38 Calm   Clear   30 23     74%     29.98        
Feb 18 07:33 Calm   Clear   30 23     74%              
Feb 18 07:28 Calm   Clear   30 23     75%     29.97        
Feb 18 07:23 Calm   Clear   30 23     75%     29.97        
Feb 18 07:17 Calm   Clear   29 22     75%     29.97        
Feb 18 07:11 Calm   Clear   29 22     76%     29.96        
Feb 18 07:01 Calm   Clear   29 22     76%              
Feb 18 06:52 Calm   Clear   29 22     76%              
Feb 18 06:47 Calm   Clear   29 22     74%              
Feb 18 06:42 Calm   Clear   29 22     75%              
Feb 18 06:33 Calm   Clear   29 21     73%              
Feb 18 06:28 Calm   Clear   29 22     74%              
Feb 18 06:23 Calm   Clear   29 22     74%     29.97        
Feb 18 06:18 Calm   Clear   28 21     76%     29.97        
Notice The following observation data may not be complete
Feb 18 06:13 Calm   Clear     21      %     29.97        
Feb 18 06:08 Calm   Clear   28 21     76%              
Feb 18 06:03 Calm   Clear   27 21     77%              
Feb 18 05:59 Calm   Clear   27 20     76%              
Feb 18 05:43 Calm   Clear   27 20     76%              
Feb 18 05:38 Calm   Clear   27 20     76%              
Feb 18 05:33 Calm   Clear   27 21     77%              
Feb 18 05:28 Calm   Clear   27 21     77%     29.99        
Feb 18 05:23 Calm   Clear   27 21     77%     29.99        
Feb 18 05:18 Calm   Clear   27 21     78%     29.99        
Feb 18 05:13 Calm   Clear   26 20     77%     29.99        
Feb 18 05:08 Calm   Clear   26 20     77%              
Feb 18 05:03 Calm   Clear   27 21     77%              
Feb 18 04:57 Calm   Clear   27 20     76%              
Feb 18 04:49 Calm   Clear   27 20     76%              
Feb 18 04:44 Calm   Clear   27 21     77%              
Feb 18 04:39 Calm   Clear   27 21     78%              
Feb 18 04:34 Calm   Clear   27 21     77%              
Feb 18 04:24 Calm   Clear   27 21     78%     30.01        
Feb 18 04:19 Calm   Clear   27 21     77%     30.01        
Feb 18 04:04 Calm   Clear   27 21     77%     30.01        
Feb 18 03:54 Calm   Clear   27 21     77%              
Feb 18 03:34 Calm   Clear   27 20     76%     30.01        
Feb 18 03:29 Calm   Clear   28 21     76%     30        
Feb 18 03:14 Calm   Clear   28 21     75%     30.01        
Feb 18 02:59 Calm   Clear   28 21     75%              
Feb 18 02:44 Calm   Clear   28 21     76%              
Feb 18 02:29 Calm   Clear   27 20     76%              
Feb 18 02:14 Calm   Clear   27 20     76%     30.03        
Feb 18 01:59 Calm   Clear   28 21     75%              
Feb 18 01:19 Calm   Clear   28 21     75%              
Feb 18 00:54 Calm   Clear   28 21     76%              
Feb 18 00:44 Calm   Clear   28 21     76%              
Feb 18 00:39 Calm   Clear   28 21     76%              
Feb 18 00:34 Calm   Clear   28 21     75%              
Feb 18 00:29 Calm   Clear   28 21     75%              
Feb 18 00:24 Calm   Clear   29 22     75%              
Feb 18 00:19 Calm   Clear   29 22     75%              
Feb 18 00:14 Calm   Clear   29 22     75%              
Feb 18 00:09 Calm   Clear   29 22     76%              
Feb 18 00:04 Calm   Clear   29 22     76%              
Feb 17 23:59 Calm   Clear   29 22     76%              
Feb 17 23:54 Calm   Clear   29 22     76%              
Feb 17 23:49 Calm   Clear   29 22     75%              
Feb 17 23:44 Calm   Clear   29 22     75%              
Feb 17 23:39 Calm   Clear   29 22     75%              
Feb 17 23:34 Calm   Clear   29 22     75%              
Feb 17 23:29 Calm   Clear   29 22     75%              
Feb 17 23:24 Calm   Clear   29 22     75%              
Feb 17 23:14 Calm   Clear   29 22     75%              
Feb 17 23:09 Calm   Clear   29 22     76%              
Feb 17 23:04 Calm   Clear   29 22     76%              
Feb 17 22:59 Calm   Clear   29 22     76%     30.09        
Feb 17 22:54 Calm   Clear   29 22     75%     30.09        
Feb 17 22:44 Calm   Clear   29 22     75%              
Feb 17 22:39 Calm   Clear   29 22     75%     30.1        
Feb 17 22:31 Calm   Clear   29 22     75%     30.1        
Feb 17 22:26 Calm   Clear   29 22     74%              
Feb 17 22:21 Calm   Clear   30 23     74%     30.1        
Feb 17 22:16 Calm   Clear   30 23     74%     30.1        
Feb 17 22:11 Calm   Clear   30 23     74%     30.1        
Feb 17 22:00 Calm   Clear   30 23     74%     30.11        
Feb 17 21:53 Calm   Clear   30 23     74%              
Feb 17 21:48 Calm   Clear   30 23     74%              
Feb 17 21:43 Calm   Clear   30 22     73%              
Feb 17 21:38 Calm   Clear   30 23     74%     30.11        
Feb 17 21:33 Calm   Clear   30 22     73%     30.11        
Feb 17 21:28 Calm   Clear   30 23     74%     30.11        
Feb 17 21:23 Calm   Clear   30 22     73%     30.11        
Feb 17 21:18 Calm   Clear   30 22     73%     30.12        
Feb 17 21:13 Calm   Clear   30 22     73%     30.11        
Feb 17 21:08 Calm   Clear   30 22     73%     30.12        
Feb 17 21:03 Calm   Clear   31 23     72%     30.11        
Feb 17 20:58 Calm   Clear   31 23     72%     30.11        
Feb 17 20:53 Calm   Clear   31 23     72%     30.11        
Feb 17 20:48 Calm   Clear   31 23     72%     30.11        
Feb 17 20:43 Calm   Clear   31 23     71%     30.11        
Feb 17 20:28 Calm   Clear   32 23     70%     30.12        
Feb 17 20:23 Calm   Clear   32 24     71%              
Feb 17 20:18 Calm   Clear   32 23     70%              
Jun 12 00:33 Calm   Clear   31 29     91%              
Jun 11 21:16 Calm   Clear   36 33     87%     29.92        
Jun 11 19:36 SW 2   Clear   37 34     87%              
Jun 11 14:06 SW 1   Clear   37 36     96%              
Jun 11 13:51 Calm   Clear   36 35     95%              
Jun 11 13:26 WSW 2   Clear   37 36     95%              
Jun 11 06:04 Calm   Clear   36 33     87%              
Jun 11 02:39 Calm   Clear   36 33     88%              
Jun 11 01:35 Calm   Clear   37 33     86%              
Jun 11 00:18 Calm   Clear   39 34     83%              
Jun 11 00:08 Calm   Clear   40 35     83%              
Jun 10 20:37 Calm   Clear   45 44     95%     29.96        
Jun 10 20:17 WSW 1   Clear   45 44     95%              
Jun 10 16:43 SW 3   Clear   48 45     91% 47            
Notice The following observation data may not be complete
Jun 10 15:55     Clear            %              
Jun 10 15:45 SW 5   Clear   49 46     89% 47            
Jun 10 15:20 SW 5   Clear   51 47     87%              
Jun 10 11:29 SW 3   Clear   47 45     93% 46            
Jun 10 07:41 Calm   Clear   47 41     80%     29.98        
Jun 10 04:27 Calm   Clear   39 36     89%     29.98        
Jun 10 04:02 Calm   Clear   39 36     88%     29.99        
Jun 10 03:49 Calm   Clear   39 36     88%     29.99        
Jun 10 02:24 W 1   Clear   40 36     86%     30.01        
Jun 09 22:59 Calm   Clear   46 40     79%     30.06        
Jun 09 22:39 Calm   Clear   47 40     76%     30.05        
Jun 09 21:42 Calm   Clear   50 47     88%     30.04        
Jun 09 21:22 Calm   Clear   51 47     87%     30.03        
Jun 09 20:37 Calm   Clear   52 49     90%     30.03        
Jun 09 20:27 Calm   Clear   51 48     90%     30.03        
Jun 09 18:16 WSW 4   Clear   53 49     85%     30.04        
Jun 09 17:41 WSW 3   Clear   54 48     81%     30.05        
Jun 09 15:51 WSW 4   Clear   58 48     69%     30.04        
Jun 09 07:05 Calm   Clear   41 38     90%     30.07        
Jun 09 06:15 Calm   Clear   40 37     88%     30.08        
Jun 09 04:55 Calm   Clear   41 37     87%     30.09        
Jun 09 03:25 Calm   Clear   42 38     86%     30.1        
Jun 09 03:15 Calm   Clear   42 38     86%     30.1        
Jun 08 23:04 Calm   Clear   47 41     81%     30.14        
Jun 08 22:21 Calm   Clear   48 41     78%     30.14        
Jun 08 16:28 SW 3   Clear   59 45     59%     30.14        
Jun 08 13:28 WSW 4   Clear   57 45     65%     30.17        
Jun 08 12:33 WSW 3   Clear   58 46     65%     30.16        
Jun 08 12:18 WSW 5   Clear   58 46     64%     30.16        
Jun 08 10:08 WSW 4   Clear   56 41     56%     30.15        
Jun 08 08:18 Calm   Clear   53 41     64%     30.13        
Jun 08 07:13 Calm   Clear   45 39     78%     30.13        
Jun 08 06:55 Calm   Clear   44 38     80%     30.12        
Notice The following observation data may not be complete
Jun 08 05:15 Calm   Clear     37      %     30.12        
Jun 08 03:41 Calm   Clear   44 38     78%     30.14        
Jun 08 02:31 Calm   Clear   45 38     77%     30.13        
Jun 07 23:56 Calm   Clear   49 39     68%     30.14        
Jun 07 18:16 SW 1   Clear   65 43     45%     30.13        
Jun 07 16:46 WSW 2   Clear   69 44     41%     30.13        
Jun 07 11:49 SW 6   Clear   67 40     37%     30.14        
Jun 07 09:04 WSW 1   Clear   62 35     37%     30.11        
Jun 07 06:08 Calm   Clear   42 36     78%     30.13        
Jun 06 10:25 WSW 4   Clear   65 37     36%     30.16        
Jun 06 09:28 SW 3   Clear   64 34     33%     30.16        
Jun 06 08:28 Calm   Clear   54 39     57%     30.14        
Notice The following observation data may not be complete
Jun 06 08:13 Calm   Clear     37      %     30.14        
Notice The following observation data may not be complete
Jun 06 08:03 Calm   Clear     37      %     30.14        
Notice The following observation data may not be complete
Jun 06 07:01 Calm   Clear     33      %     30.15        
Jun 06 06:26 Calm   Clear   40 32     73%     30.14        
Notice The following observation data may not be complete
Jun 06 06:16 Calm   Clear     32      %     30.14        
Notice The following observation data may not be complete
Jun 06 05:41 Calm   Clear     32      %     30.14        
Notice The following observation data may not be complete
Jun 06 05:01 Calm   Clear     33      %     30.15        
Jun 06 03:13 Calm   Clear   43 36     75%     30.15        
Notice The following observation data may not be complete
Jun 06 02:33 Calm   Clear     37      %     30.15        
Jun 06 01:17 Calm   Clear   46 40     79%     30.16        
Jun 06 01:12 Calm   Clear   47 41     79%     30.16        
Jun 06 00:22 Calm   Clear   48 41     78%     30.16        
Jun 05 22:03 Calm   Clear   53 43     69%     30.17        
Jun 05 19:40 Calm   Clear   61 45     56%     30.14        
Jun 05 15:51 WSW 5   Clear   68 44     42%     30.11